[[{"header":{"parameterUnit":"m.s-1","parameterCategory":1,"la1":30.2991,"la2":30.254,"lo1":-89.0895,"lo2":-89.0444,"dy":0.0017,"dx":0.0017,"nx":28,"ny":28,"refTime":"2025-12-12T09:00:00:Z","depth":0,"parameterNumber":2,"parameterNumberName":"U-component_of_WINDS"},"data":[0,0,0,0,0,0,0,0,0,0,0,0,0,0,0,0,0,0,0,0,0,0,0,0,0,0,0,0,0,0,0,0,0,0,0,0,0,0,0,0,0,0,0,0,0,0,0,0,0,0,0,0,0,0,0,0,0,0,-1.3697,-1.3698,0,-1.3803,-1.3804,-1.3805,-1.3814,-1.3813,-1.3812,-1.3811,-1.3922,-1.3926,-1.393,0,0,0,0,0,0,0,0,0,0,0,0,0,-1.3504,-1.3507,-1.3697,-1.3698,-1.3699,-1.3803,-1.3804,-1.3805,-1.3814,-1.3813,-1.3811,-1.381,-1.3921,-1.3925,-1.393,0,0,0,0,0,0,0,0,0,0,0,0,0,-1.3597,-1.3508,-1.3697,-1.3716,-1.3719,-1.3802,-1.3804,-1.3806,-1.3815,-1.3813,-1.3811,-1.3809,-1.3919,-1.3925,-1.3931,-1.4003,0,0,-1.3949,-1.3952,0,0,0,0,0,0,0,0,-1.3591,-1.3604,-1.3712,-1.3715,-1.3718,-1.3793,-1.3777,-1.3872,-1.3815,-1.3778,-1.3811,-1.3809,-1.3881,-1.389,-1.3913,-1.4008,-1.4013,-1.395,-1.3953,-1.3956,-1.3958,0,0,0,0,0,0,0,-1.3585,-1.3599,-1.3739,-1.3714,-1.3717,-1.372,-1.3731,-1.3795,-1.3838,-1.3781,-1.3782,-1.3795,-1.3882,-1.3908,-1.3916,-1.4014,-1.395,-1.3955,-1.3959,-1.3961,-1.4171,-1.4173,0,0,0,0,0,0,-1.3574,-1.3594,-1.3735,-1.3742,-1.3649,-1.3725,-1.3738,-1.3771,-1.3837,-1.3846,-1.3796,-1.3795,-1.3898,-1.3909,-1.392,-1.4007,-1.3956,-1.3962,-1.3965,-1.4169,-1.4172,-1.4174,0,0,0,0,0,0,-1.357,-1.3587,-1.3731,-1.3668,-1.3687,-1.373,-1.3768,-1.3774,-1.38,-1.3848,-1.3856,-1.3814,-1.3897,-1.3912,-1.3981,-1.4011,-1.3964,-1.397,-1.4167,-1.417,-1.4173,-1.4183,0,0,0,0,0,0,-1.3565,-1.3585,-1.3613,-1.3669,-1.369,-1.379,-1.377,-1.3777,-1.381,-1.3809,-1.3867,-1.3875,-1.3897,-1.3972,-1.3987,-1.4019,-1.3975,-1.4164,-1.4168,-1.4172,-1.418,-1.4186,-1.4191,0,0,0,0,0,-1.3558,-1.3613,-1.3614,-1.3631,-1.3725,-1.3792,-1.3804,-1.3827,-1.3812,-1.384,-1.3871,-1.3873,-1.4006,-1.3979,-1.3997,-1.403,-1.4163,-1.4167,-1.4171,-1.4178,-1.4185,-1.4191,0,0,0,0,0,0,-1.3561,-1.362,-1.3623,-1.3697,-1.3739,-1.3793,-1.383,-1.3834,-1.3883,-1.388,-1.3907,-1.392,-1.3989,-1.4017,-1.3986,-1.4102,-1.4083,-1.4091,-1.4082,-1.4089,-1.4094,-1.4086,-1.398,0,0,0,0,0,-1.357,-1.3618,-1.3668,-1.3729,-1.375,-1.3786,-1.3816,-1.383,-1.3875,-1.3893,-1.393,-1.3974,-1.4025,-1.4059,-1.4109,-1.4184,-1.4197,-1.4216,-1.4221,-1.4225,-1.4232,-1.4273,-1.4281,-1.4188,-1.4188,-1.4188,0,0,-1.359,-1.3628,-1.3657,-1.3731,-1.3765,-1.3815,-1.3801,-1.3855,-1.3893,-1.3902,-1.3969,-1.3997,-1.4049,-1.4121,-1.4155,-1.4147,-1.426,-1.4231,-1.4234,-1.4238,-1.4278,-1.4287,-1.4294,-1.4191,-1.4191,-1.419,0,0,-1.3651,-1.3685,-1.3739,-1.3773,-1.3824,-1.3848,-1.386,-1.3914,-1.3932,-1.4,-1.4008,-1.4053,-1.4141,-1.4177,-1.4207,-1.4279,-1.4283,-1.4295,-1.4323,-1.4362,-1.437,-1.4376,-1.4401,-1.441,-1.4302,-1.4302,-1.4302,0,-1.3669,-1.3744,-1.3766,-1.3819,-1.3851,-1.386,-1.3915,-1.3947,-1.4013,-1.4035,-1.4024,-1.4133,-1.4169,-1.4249,-1.4267,-1.4291,-1.4306,-1.4289,-1.4367,-1.4374,-1.438,-1.4404,-1.4414,-1.4303,-1.4303,-1.4302,-1.4302,0,-1.3763,-1.3815,-1.3853,-1.3914,-1.395,-1.4004,-1.4034,-1.4068,-1.4078,-1.4103,-1.4171,-1.4214,-1.4272,-1.4292,-1.4303,-1.4374,-1.4366,-1.4361,-1.4341,-1.439,-1.4413,-1.4422,-1.4304,-1.4304,-1.4304,-1.4303,0,0,-1.3831,-1.3902,-1.3915,-1.3942,-1.3999,-1.404,-1.4094,-1.4149,-1.4177,-1.4222,-1.4268,-1.4341,-1.4336,-1.4369,-1.4385,-1.4419,-1.4473,-1.441,-1.4411,-1.4419,-1.4552,-1.4555,-1.4565,-1.4475,-1.4477,-1.4479,-1.4547,0,-1.3897,-1.3992,-1.4013,-1.4095,-1.4143,-1.4152,-1.4198,-1.4238,-1.4262,-1.4306,-1.4333,-1.4385,-1.4374,-1.4394,-1.4429,-1.4459,-1.45,-1.4454,-1.4518,-1.452,-1.4504,-1.4577,-1.4581,-1.4643,-1.4556,-1.4558,-1.4559,0,-1.3989,-1.4033,-1.412,-1.4168,-1.4189,-1.4231,-1.4282,-1.4325,-1.437,-1.4385,-1.4421,-1.4433,-1.4489,-1.4467,-1.4544,-1.4513,-1.454,-1.4558,-1.4561,-1.4568,-1.4542,-1.4585,-1.4664,-1.4673,-1.4573,-1.4572,-1.4571,0,-1.4027,-1.411,-1.4171,-1.4195,-1.4254,-1.4282,-1.4308,-1.4352,-1.4383,-1.4429,-1.4449,-1.4501,-1.4529,-1.4569,-1.4594,-1.4576,-1.4669,-1.4649,-1.4683,-1.4682,-1.4702,-1.47,-1.4786,-1.4721,-1.4721,-1.472,-1.472,0,-1.41,-1.4152,-1.4189,-1.4227,-1.4286,-1.4309,-1.4367,-1.4393,-1.4431,-1.4474,-1.4485,-1.4526,-1.4557,-1.4601,-1.4621,-1.4681,-1.4695,-1.4708,-1.4713,-1.4707,-1.4705,-1.4725,-1.4721,-1.4723,-1.4722,-1.4722,-1.4722,0,-1.4153,-1.418,-1.4248,-1.4297,-1.4311,-1.4352,-1.4394,-1.4431,-1.4455,-1.4509,-1.4524,-1.4561,-1.4614,-1.4643,-1.471,-1.4723,-1.479,-1.4793,-1.4774,-1.4776,-1.4808,-1.4804,-1.4908,-1.4922,-1.4849,-1.4849,-1.485,0,-1.4197,-1.4237,-1.429,-1.4319,-1.4345,-1.4392,-1.4424,-1.4448,-1.4481,-1.4534,-1.4565,-1.4618,-1.4662,-1.4746,-1.478,-1.483,-1.4834,-1.4867,-1.4842,-1.4834,-1.4833,-1.483,-1.4833,-1.4871,-1.4872,-1.4872,-1.4873,0,-1.4271,-1.4282,-1.4327,-1.4376,-1.4413,-1.4454,-1.4494,-1.4517,-1.4548,-1.4584,-1.4637,-1.4671,-1.4738,-1.4791,-1.4844,-1.4871,-1.4877,-1.488,-1.4891,-1.4885,-1.4872,-1.4878,-1.4785,-1.4878,-1.4877,-1.4877,-1.4877,-1.4876,-1.4321,-1.4356,-1.4398,-1.4448,-1.448,-1.4516,-1.4553,-1.458,-1.4625,-1.4681,-1.4693,-1.4749,-1.4792,-1.4864,-1.4892,-1.4936,-1.493,-1.4945,-1.4949,-1.4952,-1.4953,-1.4865,-1.4946,-1.4946,-1.4946,-1.4946,-1.4946,0,-1.4395,-1.4422,-1.4467,-1.4522,-1.456,-1.4561,-1.4605,-1.4637,-1.4686,-1.4725,-1.4767,-1.4828,-1.4879,-1.4915,-1.4967,-1.4995,-1.4999,-1.5008,-1.5006,-1.5012,-1.4956,-1.4942,-1.5004,-1.5004,-1.5004,-1.5004,-1.5004,-1.5004,-1.4438,-1.4498,-1.4513,-1.4589,-1.4616,-1.467,-1.4695,-1.4728,-1.4759,-1.4826,-1.4868,-1.4891,-1.4929,-1.4983,-1.5029,-1.5039,-1.5057,-1.5065,-1.5074,-1.5022,-1.5016,-1.501,-1.4996,-1.5069,-1.5069,-1.5126,-1.5127,-1.5127]},{"header":{"parameterUnit":"m.s-1","parameterCategory":1,"la1":30.2991,"la2":30.254,"lo1":-89.0895,"lo2":-89.0444,"dy":0.0017,"dx":0.0017,"nx":28,"ny":28,"refTime":"2025-12-12T09:00:00:Z","depth":0,"parameterNumber":3,"parameterNumberName":"V-component_of_WINDS"},"data":[0,0,0,0,0,0,0,0,0,0,0,0,0,0,0,0,0,0,0,0,0,0,0,0,0,0,0,0,0,0,0,0,0,0,0,0,0,0,0,0,0,0,0,0,0,0,0,0,0,0,0,0,0,0,0,0,0,0,-1.3317,-1.3317,0,-1.3316,-1.3316,-1.3316,-1.3315,-1.3315,-1.3315,-1.3315,-1.3313,-1.3313,-1.3313,0,0,0,0,0,0,0,0,0,0,0,0,0,-1.3314,-1.3314,-1.3317,-1.3317,-1.3317,-1.3316,-1.3316,-1.3316,-1.3315,-1.3315,-1.3315,-1.3315,-1.3313,-1.3313,-1.3313,0,0,0,0,0,0,0,0,0,0,0,0,0,-1.3314,-1.3314,-1.3317,-1.3316,-1.3316,-1.3316,-1.3316,-1.3316,-1.3315,-1.3315,-1.3315,-1.3315,-1.3313,-1.3313,-1.3313,-1.3313,0,0,-1.3313,-1.3313,0,0,0,0,0,0,0,0,-1.3314,-1.3315,-1.3316,-1.3316,-1.3316,-1.3316,-1.3315,-1.3315,-1.3315,-1.3316,-1.3315,-1.3315,-1.3314,-1.3314,-1.3314,-1.3313,-1.3313,-1.3313,-1.3313,-1.3313,-1.3313,0,0,0,0,0,0,0,-1.3314,-1.3315,-1.3316,-1.3316,-1.3316,-1.3315,-1.3315,-1.3315,-1.3315,-1.3316,-1.3315,-1.3316,-1.3314,-1.3314,-1.3314,-1.3313,-1.3313,-1.3313,-1.3313,-1.3313,-1.3311,-1.3311,0,0,0,0,0,0,-1.3315,-1.3315,-1.3316,-1.3316,-1.3315,-1.3315,-1.3315,-1.3316,-1.3315,-1.3315,-1.3316,-1.3316,-1.3314,-1.3314,-1.3314,-1.3313,-1.3313,-1.3313,-1.3313,-1.3311,-1.3311,-1.3311,0,0,0,0,0,0,-1.3315,-1.3315,-1.3316,-1.3315,-1.3316,-1.3315,-1.3316,-1.3316,-1.3316,-1.3315,-1.3315,-1.3316,-1.3314,-1.3314,-1.3313,-1.3313,-1.3313,-1.3313,-1.3311,-1.3311,-1.3311,-1.3312,0,0,0,0,0,0,-1.3315,-1.3315,-1.3316,-1.3316,-1.3316,-1.3317,-1.3316,-1.3316,-1.3316,-1.3316,-1.3315,-1.3315,-1.3314,-1.3313,-1.3313,-1.3313,-1.3313,-1.3311,-1.3311,-1.3311,-1.3312,-1.3312,-1.3312,0,0,0,0,0,-1.3315,-1.3316,-1.3316,-1.3316,-1.3317,-1.3317,-1.3317,-1.3316,-1.3316,-1.3316,-1.3315,-1.3315,-1.3313,-1.3313,-1.3313,-1.3313,-1.3311,-1.3311,-1.3311,-1.3312,-1.3312,-1.3312,0,0,0,0,0,0,-1.3316,-1.3316,-1.3316,-1.3317,-1.3317,-1.3317,-1.3317,-1.3317,-1.3316,-1.3316,-1.3315,-1.3315,-1.3314,-1.3313,-1.3314,-1.3312,-1.3312,-1.3312,-1.3312,-1.3312,-1.3312,-1.3312,-1.3313,0,0,0,0,0,-1.3316,-1.3317,-1.3317,-1.3318,-1.3318,-1.3317,-1.3318,-1.3317,-1.3317,-1.3316,-1.3316,-1.3315,-1.3313,-1.3313,-1.3312,-1.3312,-1.3311,-1.3311,-1.3311,-1.3311,-1.3311,-1.3309,-1.3309,-1.3311,-1.3311,-1.3311,0,0,-1.3317,-1.3317,-1.3318,-1.3318,-1.3318,-1.3318,-1.3317,-1.3318,-1.3317,-1.3316,-1.3316,-1.3315,-1.3313,-1.3312,-1.3312,-1.3312,-1.331,-1.3311,-1.3311,-1.3311,-1.3309,-1.3309,-1.3309,-1.3311,-1.3311,-1.3311,0,0,-1.3319,-1.332,-1.332,-1.332,-1.3319,-1.3319,-1.3319,-1.3318,-1.3318,-1.3317,-1.3316,-1.3315,-1.3314,-1.3312,-1.3312,-1.3311,-1.331,-1.3311,-1.3311,-1.3309,-1.3309,-1.3309,-1.3308,-1.3307,-1.3311,-1.3311,-1.3311,0,-1.332,-1.3321,-1.3321,-1.332,-1.332,-1.3319,-1.3319,-1.3319,-1.3318,-1.3317,-1.3317,-1.3314,-1.3314,-1.3312,-1.3311,-1.3311,-1.331,-1.3311,-1.3309,-1.3309,-1.3309,-1.3308,-1.3307,-1.3311,-1.3311,-1.3311,-1.3311,0,-1.3322,-1.3322,-1.3322,-1.3321,-1.3321,-1.3321,-1.332,-1.3319,-1.3318,-1.3318,-1.3316,-1.3315,-1.3313,-1.3312,-1.3312,-1.331,-1.331,-1.3309,-1.3309,-1.3309,-1.3307,-1.3307,-1.3311,-1.3311,-1.3311,-1.3311,0,0,-1.3325,-1.3323,-1.3323,-1.3322,-1.3321,-1.3321,-1.332,-1.3319,-1.3318,-1.3317,-1.3315,-1.3314,-1.3313,-1.3312,-1.3311,-1.3309,-1.3308,-1.3309,-1.3309,-1.3308,-1.3304,-1.3304,-1.3304,-1.3307,-1.3307,-1.3307,-1.3304,0,-1.3326,-1.3325,-1.3324,-1.3323,-1.3323,-1.3321,-1.332,-1.3319,-1.3318,-1.3316,-1.3315,-1.3313,-1.3313,-1.3312,-1.331,-1.3308,-1.3307,-1.3308,-1.3305,-1.3304,-1.3305,-1.3303,-1.3304,-1.3301,-1.3304,-1.3304,-1.3304,0,-1.3327,-1.3326,-1.3325,-1.3323,-1.3323,-1.3322,-1.332,-1.3319,-1.3317,-1.3316,-1.3314,-1.3313,-1.3311,-1.331,-1.3307,-1.3308,-1.3306,-1.3305,-1.3304,-1.3304,-1.3304,-1.3302,-1.33,-1.33,-1.3303,-1.3303,-1.3303,0,-1.3329,-1.3327,-1.3326,-1.3325,-1.3323,-1.3322,-1.3321,-1.3319,-1.3318,-1.3316,-1.3314,-1.3312,-1.331,-1.3308,-1.3305,-1.3306,-1.3301,-1.3301,-1.3299,-1.3299,-1.3299,-1.3299,-1.3296,-1.3298,-1.3298,-1.3298,-1.3298,0,-1.333,-1.3329,-1.3327,-1.3326,-1.3325,-1.3323,-1.3321,-1.332,-1.3318,-1.3316,-1.3314,-1.3312,-1.331,-1.3307,-1.3305,-1.3301,-1.3301,-1.3299,-1.3298,-1.3299,-1.3299,-1.3298,-1.3298,-1.3298,-1.3298,-1.3298,-1.3298,0,-1.3331,-1.333,-1.3328,-1.3326,-1.3325,-1.3324,-1.3322,-1.332,-1.3318,-1.3316,-1.3315,-1.3312,-1.3309,-1.3306,-1.3302,-1.33,-1.3296,-1.3296,-1.3297,-1.3297,-1.3295,-1.3295,-1.3291,-1.329,-1.3293,-1.3293,-1.3293,0,-1.3332,-1.3331,-1.3328,-1.3327,-1.3326,-1.3324,-1.3323,-1.3321,-1.3319,-1.3316,-1.3314,-1.3311,-1.3308,-1.3303,-1.33,-1.3296,-1.3295,-1.3294,-1.3294,-1.3294,-1.3294,-1.3294,-1.3293,-1.3294,-1.3294,-1.3294,-1.3294,0,-1.3333,-1.3332,-1.333,-1.3328,-1.3326,-1.3324,-1.3322,-1.3321,-1.3318,-1.3316,-1.3313,-1.331,-1.3306,-1.3302,-1.3298,-1.3295,-1.3293,-1.3293,-1.3293,-1.3293,-1.3293,-1.3292,-1.3297,-1.3293,-1.3293,-1.3293,-1.3293,-1.3293,-1.3333,-1.3332,-1.333,-1.3328,-1.3326,-1.3323,-1.3322,-1.3319,-1.3317,-1.3313,-1.3312,-1.3308,-1.3304,-1.3298,-1.3296,-1.3292,-1.3292,-1.3291,-1.3291,-1.329,-1.329,-1.3294,-1.3291,-1.3291,-1.3291,-1.3291,-1.3291,0,-1.3333,-1.3332,-1.333,-1.3326,-1.3324,-1.3323,-1.332,-1.3318,-1.3315,-1.3312,-1.3309,-1.3305,-1.3301,-1.3297,-1.3292,-1.329,-1.3289,-1.3289,-1.3289,-1.3288,-1.3291,-1.3292,-1.3289,-1.3289,-1.3289,-1.3289,-1.3289,-1.3289,-1.3333,-1.3331,-1.3329,-1.3326,-1.3324,-1.332,-1.3319,-1.3316,-1.3313,-1.3308,-1.3305,-1.3303,-1.3299,-1.3294,-1.3289,-1.3288,-1.3286,-1.3286,-1.3285,-1.3288,-1.3288,-1.3288,-1.3289,-1.3286,-1.3286,-1.3282,-1.3282,-1.3282]}]]